Content
SEND FEEDBACK

Daily
Averages
Monthly
Summary
United States of America

ABBEVILLE, MISSISSIPPI


Home > North America > United States > Mississippi
Elevation: 40 feet     Latitude: 34 30N     Longitude: 089 30W

WEATHER
 
SELECT A DAY
Number of Records: 154,142;   Date Range: 1/16/01 - 8/12/14
 
SHARE

PRINT THIS DATA

[ ← Previous Day ]
WEATHER ALMANAC - FEBRUARY 13, 2013
[ Next Day → ]
[ °C ]   °F
Weather ElementAverageHighLow
Temperature39.6 °F41 °F (12:35 am)33.8 °F (10:35 pm)
Dewpoint36.8 °F41 °F (2:15 am)32 °F (9:35 pm)
Humidity90.1 %100 % (2:15 am)81 % (11:15 am)
Barometer29.95 in30.07 in (10:35 pm)29.77 in (2:55 am)
Wind Speed4.6 mph11.5 mph (1:15 pm)
Weather ElementAverage
Visibility5.9 mi
Wind DirectionSW (222.3 °)

Weather ElementTotal
Precipitation---
Heating Degree Days27.6 (Base 65)
Averaged from 65 records on February 13, 2013
WEATHER CONDITIONS BREAKOUT
WIND DIRECTION BREAKOUT
WEATHER BY HOUR - FEBRUARY 13, 2013
[ °C ]   °F
Local TimeTemperatureDewpointHumidityBarometerVisibilityWind DirectionWind SpeedGust SpeedPrecipitationEventsConditions
12:35 AM41.0 °F39.2 °F93 %29.80 in1.5 miCalmRainLight Rain
12:55 AM41.0 °F39.2 °F93 %29.79 in2.0 miCalmOvercast
1:15 AM41.0 °F39.2 °F93 %29.80 in1.5 miCalmOvercast
1:35 AM41.0 °F39.2 °F93 %29.79 in1.2 miCalmOvercast
1:55 AM41.0 °F39.2 °F93 %29.79 in1.5 miWNW (300°)3.5 mphRainLight Rain
2:15 AM41.0 °F41.0 °F100 %29.79 in1.8 miWNW (300°)4.6 mphRainLight Rain
2:35 AM41.0 °F39.2 °F93 %29.78 in1.5 miNW (310°)4.6 mphOvercast
2:55 AM41.0 °F41.0 °F100 %29.77 in1.8 miNW (310°)4.6 mphOvercast
3:15 AM41.0 °F41.0 °F100 %29.78 in2.5 miWNW (290°)4.6 mphOvercast
3:35 AM41.0 °F41.0 °F100 %29.78 in2.5 miWest (280°)3.5 mphOvercast
3:55 AM41.0 °F41.0 °F100 %29.79 in2.0 miWest (270°)5.8 mphOvercast
4:15 AM41.0 °F41.0 °F100 %29.81 in2.5 miWNW (290°)6.9 mphRainLight Rain
4:35 AM41.0 °F41.0 °F100 %29.82 in2.5 miWest (280°)5.8 mphRainLight Rain
4:55 AM41.0 °F41.0 °F100 %29.83 in3.0 miWest (280°)8.1 mphOvercast
5:15 AM41.0 °F41.0 °F100 %29.84 in3.0 miWest (280°)5.8 mphRainLight Rain
5:35 AM41.0 °F39.2 °F93 %29.85 in5.0 miNW (320°)8.1 mphOvercast
5:55 AM41.0 °F39.2 °F93 %29.85 in10.0 miNW (320°)8.1 mphOvercast
6:15 AM39.2 °F39.2 °F100 %29.87 in5.0 miNNW (330°)9.2 mphOvercast
6:35 AM39.2 °F39.2 °F100 %29.88 in8.0 miNW (320°)5.8 mphOvercast
6:55 AM39.2 °F39.2 °F100 %29.89 in9.0 miNW (320°)8.1 mphOvercast
7:15 AM39.2 °F39.2 °F100 %29.90 in9.0 miNNW (330°)9.2 mphOvercast
7:35 AM39.2 °F37.4 °F93 %29.91 in7.0 miNW (320°)8.1 mphOvercast
8:15 AM39.2 °F37.4 °F93 %29.94 in9.0 miNNW (330°)8.1 mphOvercast
8:35 AM39.2 °F37.4 °F93 %29.94 in7.0 miNNW (330°)5.8 mphOvercast
8:55 AM39.2 °F37.4 °F93 %29.96 in8.0 miNNW (330°)6.9 mphOvercast
9:15 AM39.2 °F37.4 °F93 %29.96 in6.0 miNW (320°)8.1 mphOvercast
9:35 AM39.2 °F37.4 °F93 %29.97 in7.0 miNNW (330°)6.9 mphOvercast
9:55 AM39.2 °F35.6 °F87 %29.98 in7.0 miNNW (340°)9.2 mphOvercast
10:15 AM39.2 °F35.6 °F87 %29.99 in5.0 miNNW (340°)6.9 mphOvercast
10:55 AM39.2 °F37.4 °F93 %30.00 in8.0 miNNW (340°)4.6 mphOvercast
11:15 AM41.0 °F35.6 °F81 %30.01 in8.0 miNNW (330°)8.1 mphOvercast
11:55 AM41.0 °F35.6 °F81 %30.01 in8.0 miNNW (340°)9.2 mphOvercast
12:15 PM41.0 °F35.6 °F81 %30.01 in8.0 miNNW (330°)6.9 mphOvercast
12:55 PM41.0 °F35.6 °F81 %30.00 in7.0 miNW (320°)6.9 mphOvercast
1:15 PM41.0 °F35.6 °F81 %30.00 in6.0 miNW (320°)11.5 mphHaze
1:35 PM39.2 °F35.6 °F87 %30.00 in7.0 miNNW (340°)8.1 mphOvercast
1:55 PM39.2 °F35.6 °F87 %30.00 in7.0 miNNW (330°)6.9 mphOvercast
2:15 PM39.2 °F35.6 °F87 %30.00 in6.0 miNorth (350°)10.4 mphHaze
2:35 PM41.0 °F35.6 °F81 %30.00 in7.0 miNNW (340°)5.8 mphOvercast
2:55 PM41.0 °F35.6 °F81 %29.99 in7.0 miNNW (340°)6.9 mphMostly Cloudy
3:15 PM41.0 °F35.6 °F81 %30.00 in7.0 miNW (320°)9.2 mphMostly Cloudy
3:35 PM41.0 °F35.6 °F81 %30.00 in7.0 miWNW (300°)5.8 mphOvercast
3:55 PM41.0 °F35.6 °F81 %30.00 in7.0 miWNW (300°)4.6 mphOvercast
4:15 PM41.0 °F35.6 °F81 %30.00 in7.0 miWest (280°)3.5 mphOvercast
4:35 PM41.0 °F35.6 °F81 %30.01 in7.0 miNW (310°)4.6 mphOvercast
4:55 PM41.0 °F35.6 °F81 %30.01 in8.0 miWest (260°)3.5 mphOvercast
5:15 PM41.0 °F35.6 °F81 %30.02 in7.0 miWest (280°)3.5 mphOvercast
5:35 PM41.0 °F35.6 °F81 %30.03 in8.0 miWest (280°)3.5 mphOvercast
5:55 PM41.0 °F35.6 °F81 %30.03 in9.0 miCalmOvercast
6:15 PM39.2 °F35.6 °F87 %30.03 in8.0 miCalmOvercast
6:55 PM39.2 °F35.6 °F87 %30.04 in8.0 miCalmOvercast
7:15 PM39.2 °F35.6 °F87 %30.04 in8.0 miCalmOvercast
7:35 PM39.2 °F35.6 °F87 %30.04 in8.0 miSW (230°)3.5 mphOvercast
7:55 PM39.2 °F35.6 °F87 %30.05 in8.0 miSW (220°)4.6 mphOvercast
8:15 PM39.2 °F35.6 °F87 %30.05 in8.0 miSW (220°)3.5 mphOvercast
8:55 PM37.4 °F35.6 °F93 %30.05 in7.0 miCalmMostly Cloudy
9:15 PM37.4 °F35.6 °F93 %30.05 in7.0 miCalmPartly Cloudy
9:35 PM35.6 °F32.0 °F87 %30.05 in5.0 miCalmClear
9:55 PM35.6 °F32.0 °F87 %30.06 in4.0 miCalmClear
10:15 PM35.6 °F32.0 °F87 %30.06 in5.0 miCalmClear
10:35 PM33.8 °F32.0 °F93 %30.07 in4.0 miCalmClear
10:55 PM35.6 °F33.8 °F93 %30.07 in6.0 miCalmClear
11:15 PM35.6 °F33.8 °F93 %30.07 in7.0 miCalmClear
11:35 PM35.6 °F33.8 °F93 %30.07 in7.0 miCalmClear
11:55 PM35.6 °F32.0 °F87 %30.07 in7.0 miCalmClear
Hourly data recorded from KUOX, located miles away from Abbeville, Mississippi







STORIES FROM OUR PARTNERS